Location: Namasale
(1.5000°N, 32.6167°E)
Time: 16:35:47
(UTC+00:00)

Cosmos 1709 Rocket - Pass Details

Date: 09 April 2020
Orbit: 948 x 1002 km, 82.9° (Epoch: 26 May)

Event Time Altitude Azimuth Distance (km) Brightness Sun altitude
Rises 16:07:29 0° 12° (NNE) 3,604 6.9 -3.9°
Reaches altitude 10° 16:10:09 10° 21° (NNE) 2,660 6.2 -4.5°
Maximum altitude 16:15:41 37° 87° (E) 1,425 4.4 -5.9°
Drops below altitude 10° 16:21:15 10° 153° (SSE) 2,676 6.0 -7.3°
Sets 16:23:55 0° 161° (SSE) 3,628 6.7 -7.9°
